Home   Weather   Annapolis   Past weeks
Flag for USA

Past Weather in Annapolis, Maryland, USA — Yesterday and Last 2 Weeks

Now
62 °F

Sunny.


Feels Like: 62 °F
Forecast: 64 / 55 °F
Wind: 5 mph from North

Location: Annapolis - United States Naval Academy

Current Time: Oct 21, 2019 at 1:44:03 pm

Latest Report: Oct 21, 2019 at 12:54 pm


Visibility: 10 mi

Pressure: 30.08 "Hg

Humidity: 58%

Dew Point: 47 °F

Location of AnnapolisLocation

Past Weather in Annapolis — Graph

°F

Annapolis Temperature Yesterday

Maximum temperature yesterday: 60 °F (at 1:54 am)
Minimum temperature yesterday: 56 °F (at 7:54 am)
Average temperature yesterday: 57 °F

High & Low Weather Summary for the Past Weeks

 TemperatureHumidityPressure
High78 °F (Oct 7, 1:54 pm)100% (Oct 14, 3:54 am)30.27 "Hg (Oct 14, 3:54 am)
Low44 °F (Oct 19, 5:54 am)27% (Oct 14, 3:54 pm)29.46 "Hg (Oct 16, 5:13 pm)
Average61 °F72%30.02 "Hg
* Reported Oct 6 11:54 am — Oct 21 11:54 am, Annapolis. Weather by CustomWeather, © 2019

Note: Actual official high and low records may vary slightly from our data, if they occured in-between our weather recording intervals... More about our weather records

Advertising

Annapolis Weather History for the Previous 24 Hours

Scroll right to see more
 ConditionsComfort  
Time TempWeatherWind HumidityBarometerVisibility
11:54 am
Mon, Oct 21
61 °FSunny.7 mph65%30.09 "Hg10 mi
10:54 am59 °FSunny.8 mph72%30.11 "Hg10 mi
10:24 am58 °FScattered clouds.7 mph75%30.10 "Hg10 mi
9:54 am57 °FOvercast.8 mph78%30.10 "Hg10 mi
8:54 am56 °FPartly sunny.8 mph84%30.09 "Hg9 mi
7:54 am55 °FOvercast.9 mph87%30.07 "Hg8 mi
6:54 am56 °FOvercast.9 mph84%30.04 "Hg9 mi
5:54 am56 °FOvercast.9 mph87%30.04 "Hg9 mi
5:16 am56 °FOvercast.7 mph87%30.02 "Hg8 mi
4:54 am56 °FOvercast.8 mph87%30.01 "Hg7 mi
3:54 am56 °FOvercast.8 mph87%29.99 "Hg7 mi
3:19 am56 °FOvercast.10 mph90%29.98 "Hg7 mi
2:54 am56 °FOvercast.12 mph90%29.98 "Hg7 mi
1:54 am56 °FOvercast.13 mph90%29.97 "Hg8 mi
12:54 am56 °FOvercast.9 mph97%29.96 "Hg10 mi
12:05 am56 °FOvercast.10 mph97%29.94 "Hg10 mi
11:54 pm
Sun, Oct 20
56 °FOvercast.10 mph97%29.95 "Hg10 mi
10:54 pm56 °FOvercast.12 mph97%29.95 "Hg7 mi
10:16 pm56 °FFog.13 mph97%29.93 "Hg5 mi
9:54 pm56 °FFog.12 mph97%29.93 "Hg5 mi
8:54 pm56 °FLight rain. Fog.13 mph100%29.92 "Hg5 mi
7:54 pm57 °FMostly cloudy.14 mph96%29.89 "Hg8 mi
6:54 pm57 °FLight rain. Fog.15 mph96%29.88 "Hg4 mi
6:27 pm57 °FLight rain. Fog.17 mph96%29.86 "Hg3 mi
6:11 pm57 °FLight rain. Fog.18 mph96%29.86 "Hg2 mi
5:54 pm57 °FLight rain. Fog.17 mph100%29.85 "Hg2 mi
5:01 pm57 °FRain. Fog.15 mph100%29.85 "Hg1 mi
4:54 pm57 °FRain. Fog.16 mph100%29.85 "Hg1 mi
4:39 pm57 °FHeavy rain. Fog.16 mph100%29.85 "Hg1 mi
4:29 pm57 °FRain. Fog.15 mph100%29.84 "Hg1 mi
3:54 pm57 °FLight rain. Fog.15 mph96%29.84 "Hg1 mi
3:24 pm57 °FLight rain. Fog.13 mph96%29.84 "Hg2 mi
3:13 pm57 °FLight rain. Fog.16 mph100%29.83 "Hg3 mi
3:05 pm57 °FLight rain. Fog.15 mph96%29.83 "Hg2 mi
2:27 pm57 °FHeavy rain. Fog.13 mph96%29.84 "Hg1 mi
2:03 pm57 °FHeavy rain. Fog.14 mph96%29.85 "Hg1 mi
1:54 pm57 °FRain. Fog.13 mph96%29.87 "Hg2 mi
1:27 pm57 °FRain. Fog.14 mph93%29.88 "Hg2 mi
1:20 pm57 °FRain. Fog.13 mph93%29.88 "Hg2 mi
1:05 pm57 °FLight rain. Fog.12 mph93%29.90 "Hg3 mi
Weather by CustomWeather, © 2019

See weather overview